Weather History for KONO - May, 2013

Change the Weather History Date:

Tuesday, May 14, 2013

  Actual Average Record
Temperature  
Mean Temperature 65 °F 59 °F  
Max Temperature 78 °F 74 °F 94 °F (1973)
Min Temperature 51 °F 44 °F 28 °F (1970)
Degree Days  
Heating Degree Days 0 7  
Month to date heating degree days 43 124  
Since 1 July heating degree days 5564 5865  
Cooling Degree Days 0 1  
Month to date cooling degree days 44 9  
Year to date cooling degree days 44 10  
Growing Degree Days 15 (Base 50)    
Moisture  
Dew Point 35 °F    
Average Humidity 37    
Maximum Humidity 54    
Minimum Humidity 19    
Precipitation  
Precipitation 0.00 in 0.04 in 0.26 in (1969)
Month to date precipitation T 0.53  
Year to date precipitation 1.41 4.32  
Sea Level Pressure  
Sea Level Pressure 30.00 in    
Wind  
Wind Speed 10 mph (NNW)    
Max Wind Speed 28 mph    
Max Gust Speed 35 mph    
Visibility 10 miles    
Events      
T = Trace of Precipitation, MM = Missing Value Source: NWS Daily Summary

Daily Weather History Graph

Daily Weather History Graph

Search for Another Location

Airport or City:

Trip Planner

Search our weather history database for the weather conditions in past years. The results will help you decide how hot, cold, wet, or windy it might be!

Date:

Astronomy

May. 14, 2013 Rise Set
Actual Time 6:22 AM MDT 9:06 PM MDT
Civil Twilight 5:49 AM MDT 9:40 PM MDT
Nautical Twilight 5:07 AM MDT 10:22 PM MDT
Astronomical Twilight 4:18 AM MDT 11:11 PM MDT
Moon 10:06 AM MDT (5/14) 12:17 AM MDT (5/14)
Length of Visible Light 15h 50m
Length of Day
14h 44m
Waxing Crescent, 19% of the Moon is Illuminated
May 14
Waxing Crescent
May 17
First Quarter
May 24
Full
May 31
Last Quarter
Jun 8
New

Hourly Weather History & Observations

Time (MDT) Temp. Dew Point Humidity Pressure Visibility Wind Dir Wind Speed Gust Speed Precip Events Conditions
12:53 AM 62.1 °F 41.0 °F 46% 30.01 in 10.0 mi NNW 19.6 mph 29.9 mph N/A   Clear
1:53 AM 59.0 °F 39.0 °F 48% 30.03 in 10.0 mi NW 23.0 mph 32.2 mph N/A   Clear
2:53 AM 57.0 °F 37.9 °F 49% 30.04 in 10.0 mi NNW 20.7 mph 29.9 mph N/A   Clear
3:53 AM 55.9 °F 37.0 °F 49% 30.05 in 10.0 mi NW 19.6 mph - N/A   Clear
4:53 AM 54.0 °F 36.0 °F 51% 30.06 in 10.0 mi NW 13.8 mph 23.0 mph N/A   Clear
5:53 AM 53.1 °F 35.1 °F 50% 30.06 in 10.0 mi NW 18.4 mph 24.2 mph N/A   Clear
6:53 AM 52.0 °F 35.1 °F 53% 30.07 in 10.0 mi NW 13.8 mph - N/A   Clear
7:53 AM 53.1 °F 35.1 °F 50% 30.12 in 10.0 mi South 3.5 mph - N/A   Clear
8:53 AM 57.9 °F 34.0 °F 41% 30.12 in 10.0 mi NW 13.8 mph - N/A   Clear
9:53 AM 62.1 °F 34.0 °F 35% 30.10 in 10.0 mi WNW 10.4 mph - N/A   Clear
10:53 AM 64.0 °F 33.1 °F 31% 30.08 in 10.0 mi WSW 3.5 mph - N/A   Clear
11:53 AM 66.9 °F 34.0 °F 30% 30.06 in 10.0 mi Variable 3.5 mph - N/A   Clear
12:53 PM 69.1 °F 34.0 °F 27% 30.04 in 10.0 mi Calm Calm - N/A   Clear
1:53 PM 72.0 °F 34.0 °F 25% 30.01 in 10.0 mi Calm Calm - N/A   Clear
2:53 PM 75.0 °F 34.0 °F 22% 29.98 in 10.0 mi Variable 5.8 mph - N/A   Clear
3:53 PM 73.9 °F 35.1 °F 24% 29.96 in 10.0 mi Variable 5.8 mph - N/A   Clear
4:53 PM 77.0 °F 33.1 °F 20% 29.92 in 10.0 mi NE 8.1 mph - N/A   Clear
5:53 PM 78.1 °F 32.0 °F 19% 29.91 in 10.0 mi NNE 6.9 mph - N/A   Clear
6:53 PM 78.1 °F 32.0 °F 19% 29.90 in 10.0 mi NE 5.8 mph - N/A   Clear
7:53 PM 78.1 °F 33.1 °F 19% 29.88 in 10.0 mi NE 6.9 mph - N/A   Clear
8:53 PM 73.0 °F 35.1 °F 25% 29.90 in 10.0 mi NNE 5.8 mph - N/A   Clear
9:53 PM 68.0 °F 34.0 °F 28% 29.93 in 10.0 mi NNW 11.5 mph - N/A   Clear
10:53 PM 66.9 °F 36.0 °F 32% 29.94 in 10.0 mi NW 11.5 mph - N/A   Clear
11:53 PM 63.0 °F 35.1 °F 35% 29.94 in 10.0 mi NNW 15.0 mph - N/A   Clear